Kuchera_Ratio
0.0 0.0 0.0 0.0 0.0 0.0 0.0 0.0 0.0 0.0 0.0 0.0 0.0 0.0 0.0 0.0 0.0 0.0 0.0 0.0 0.0 0.0 0.0 0.0 0.0 0.0 0.0 0.0 0.0 0.0 0.0 0.0 0.0 1.3 4.9 1.7 4.9 0.0 0.0 0.0 0.0 0.0 4.1 6.1 7.1 8.3 8.9 0.0 0.0 0.0 0.0 0.0 0.0 0.0
0.0 0.0 0.0 0.0 0.0 0.0 0.0 0.0 0.0 0.0 0.0 0.0 0.0 0.0 0.0 0.0 0.0 0.0 0.0 0.0 0.0 0.0 0.0 0.0 0.0 0.0 0.0 0.0 0.0 0.0 0.0 0.0 0.0 0.0 0.9 0.9 5.1 2.4 4.5 6.3 0.0 1.9 0.0 0.0 0.0 0.0 0.0 0.0 0.0 0.0 0.0 0.0 0.0 0.0
0.0 0.0 0.0 0.0 0.0 0.0 0.0 0.0 0.0 0.0 0.0 0.0 0.0 0.0 0.0 0.0 0.0 0.0 0.0 0.0 0.0 0.0 0.0 0.0 0.0 0.0 0.0 0.0 0.0 0.0 0.0 0.0 0.0 0.0 0.0 0.7 4.5 0.0 6.1 4.1 0.0 0.0 0.0 0.0 0.0 0.0 0.0 0.0 0.0 0.0 0.0 0.0 0.0 0.0
0.0 0.0 0.0 0.0 0.0 0.0 0.0 0.0 0.0 0.0 0.0 0.0 0.0 0.0 0.0 0.0 0.0 0.0 0.0 0.0 0.0 0.0 0.0 0.0 0.0 0.0 0.0 0.0 0.0 0.0 0.0 0.0 0.0 0.0 0.0 1.1 2.7 0.0 1.9 0.0 0.0 0.0 0.0 0.0 0.0 0.0 0.0 0.0 0.0 0.0 0.0 0.0 0.0 0.0
0.0 0.0 0.0 0.0 0.0 0.0 0.0 0.0 0.0 0.0 0.0 0.0 0.0 0.0 0.0 0.0 0.0 0.0 0.0 0.0 0.0 0.0 0.0 0.0 0.0 0.0 0.0 0.0 0.0 0.0 0.0 0.0 0.0 0.0 0.0 2.0 0.0 0.0 0.0 0.0 0.9 0.0 0.0 0.3 1.3 0.0 0.0 0.0 0.0 0.0 0.0 0.0 0.0 0.0
0.0 0.0 0.0 0.0 0.0 0.0 0.0 0.0 0.0 0.0 0.0 0.0 0.0 0.0 0.0 0.0 0.0 0.0 0.0 0.0 0.0 0.0 0.0 3.4 0.0 0.0 0.0 0.0 0.0 0.0 0.0 0.0 0.0 0.0 0.0 0.0 0.0 0.0 3.6 1.4 0.0 0.0 0.0 0.0 0.0 0.0 0.0 0.0 0.0 0.0 0.0 0.0 0.0 0.0
0.0 0.0 0.0 0.0 0.0 0.0 0.0 0.0 0.0 0.0 0.0 0.0 0.0 0.0 0.0 0.0 0.0 0.0 0.0 0.0 0.0 0.0 0.0 0.0 0.0 0.0 0.0 0.0 0.0 0.0 0.0 0.0 0.0 0.0 0.0 0.0 0.0 0.0 4.1 4.5 0.0 0.0 0.0 0.0 0.0 0.0 0.0 0.0 0.0 0.0 0.0 0.0 0.0 0.0
0.0 0.0 0.0 0.0 0.0 0.0 0.0 0.0 0.0 0.0 0.0 0.0 0.0 0.0 0.0 0.0 0.0 0.0 0.0 0.0 0.0 0.0 0.0 4.9 5.7 2.5 0.0 0.0 0.0 0.0 0.0 0.0 0.0 0.0 0.0 0.0 0.0 0.0 5.1 0.0 0.0 0.0 0.0 0.0 0.0 0.0 0.0 0.0 0.0 0.0 0.0 0.0 0.0 0.0
0.0 0.0 0.0 0.0 0.0 0.0 0.0 0.0 0.0 0.0 0.0 0.0 0.0 0.0 0.0 0.0 0.0 0.0 0.0 0.0 0.0 0.0 3.9 7.7 7.1 6.7 0.0 0.0 0.0 1.5 0.0 6.7 0.0 2.6 1.0 0.0 0.1 4.1 0.0 0.0 0.0 0.0 0.0 0.0 0.0 0.0 0.0 0.0 0.0 0.0 0.0 0.0 0.0 0.0
0.0 0.0 0.0 0.0 0.0 0.0 0.0 0.0 0.0 0.0 0.0 0.0 0.0 0.0 2.8 0.0 0.0 0.0 0.0 0.3 1.2 3.8 5.0 7.5 0.0 2.7 0.0 1.7 4.1 3.7 4.1 6.9 7.7 1.5 0.0 2.3 0.9 0.0 0.0 0.0 0.0 0.0 0.0 0.0 0.0 0.0 0.0 0.0 0.0 0.0 0.0 0.0 0.0 0.5
0.0 0.0 0.0 0.0 0.0 0.0 0.0 0.0 0.0 0.0 0.0 0.0 0.0 1.9 0.0 0.0 0.0 0.0 5.7 7.1 6.5 7.7 5.7 2.5 0.7 0.0 0.0 4.3 6.1 4.1 7.1 5.9 8.7 0.5 1.5 2.1 2.3 0.0 0.0 0.0 0.0 0.0 0.0 0.0 0.0 0.0 0.0 0.0 0.0 0.0 0.0 0.0 0.0 2.5
0.0 0.0 0.0 0.0 0.0 0.0 0.0 0.0 0.0 0.0 0.0 0.0 0.0 0.0 0.0 0.0 1.5 5.9 7.7 4.9 6.9 5.5 0.9 3.3 0.5 0.0 1.7 0.0 2.9 4.9 7.1 6.1 11.7 0.0 7.1 8.3 0.0 0.0 0.0 0.0 0.0 0.0 0.0 0.0 0.0 0.0 0.0 0.0 0.0 0.0 0.0 0.0 0.5 2.4
0.0 0.0 0.0 0.0 0.0 0.0 0.0 0.0 0.0 0.0 0.0 0.0 0.0 2.7 2.9 4.1 10.3 11.1 11.5 8.3 6.7 2.9 4.3 3.7 5.1 1.1 1.7 2.3 5.9 7.4 9.5 9.9 3.9 8.3 7.3 0.3 0.0 0.0 0.0 0.0 0.0 0.0 0.0 0.0 0.0 0.0 0.0 0.0 0.0 0.0 3.0 4.1 5.6 6.3
0.0 0.0 0.0 0.0 0.0 0.0 0.0 0.0 0.0 0.0 0.0 0.7 6.7 10.7 8.9 10.9 7.1 2.7 2.9 7.1 6.1 5.1 3.7 2.3 4.1 3.1 4.1 7.7 7.7 12.2 4.1 4.5 11.3 11.7 7.3 0.0 0.0 0.0 0.0 0.0 0.0 0.0 0.0 0.0 0.0 0.0 0.0 0.1 0.8 1.0 2.9 6.4 6.8 7.5
0.0 0.0 0.0 0.0 0.0 0.0 0.0 0.0 0.0 0.0 0.0 5.5 6.5 10.5 8.7 0.9 2.1 5.9 3.3 3.3 3.3 0.9 0.3 2.9 2.9 2.5 5.9 9.1 6.7 7.1 11.1 12.5 8.7 6.9 0.0 0.0 0.0 0.0 0.0 0.0 0.0 0.0 0.0 0.4 0.0 0.0 0.7 1.8 2.9 3.2 4.8 5.4 6.6 8.3
0.0 0.0 0.0 0.0 0.0 0.0 0.0 0.0 0.0 0.0 4.7 5.3 8.1 9.5 4.5 6.3 7.9 7.5 7.3 5.9 0.0 0.5 1.1 2.1 6.7 10.1 10.5 8.1 10.7 12.2 11.7 11.1 4.1 0.1 0.0 0.0 0.0 0.0 0.0 0.0 0.0 0.0 0.0 0.0 0.0 0.0 0.0 0.8 4.1 5.4 5.8 7.3 7.9 7.9
0.0 0.0 0.0 0.0 0.0 0.0 0.0 0.0 0.0 5.8 6.1 10.3 7.9 3.1 3.9 5.7 7.3 5.9 5.9 3.5 0.0 4.5 8.1 5.5 12.1 11.7 1.9 9.3 10.7 3.7 8.1 3.9 0.0 0.0 0.0 0.0 0.0 0.0 0.0 0.0 0.0 0.0 0.0 0.0 0.0 0.0 0.1 2.3 5.0 7.1 8.3 7.5 7.5 7.5
0.0 0.0 0.0 0.0 0.0 0.0 0.0 0.0 4.3 6.1 10.7 4.5 7.1 5.9 4.9 3.1 4.9 5.9 4.7 0.0 2.9 3.1 2.7 7.3 0.9 9.3 11.5 12.5 9.9 3.3 0.1 0.0 0.0 0.0 0.0 0.0 0.0 0.0 0.0 0.0 0.0 0.0 0.0 0.0 0.0 2.3 3.7 5.3 6.5 6.9 7.7 5.9 6.9 7.4
0.0 0.0 0.0 0.0 0.0 0.0 2.9 4.1 0.0 8.9 6.3 1.7 1.3 0.3 0.5 1.5 0.3 0.0 0.5 1.5 0.0 0.0 1.7 5.3 9.9 11.5 9.3 3.3 4.7 3.1 1.9 0.9 0.3 0.0 0.0 0.0 0.0 0.0 0.0 0.0 0.0 0.0 0.0 0.0 0.1 2.1 3.5 4.9 5.9 5.7 4.5 2.7 5.7 4.9
0.0 0.0 0.0 0.0 0.0 0.3 7.7 5.7 0.0 5.3 7.5 3.3 1.3 3.3 2.1 2.7 1.7 5.1 5.7 4.5 2.7 6.1 9.7 11.1 8.9 4.9 3.3 0.0 0.0 0.0 0.0 0.0 0.0 2.3 1.1 0.0 0.0 0.0 0.0 0.0 0.0 0.0 0.0 0.0 2.3 5.3 6.7 7.3 6.5 5.7 2.3 3.2 5.5 5.5
0.0 0.0 0.0 0.0 0.0 0.0 1.5 4.7 6.5 5.3 2.1 3.1 0.0 0.9 3.7 0.7 4.7 6.9 7.5 3.3 8.3 8.3 8.9 3.3 4.1 0.5 0.0 0.0 0.0 0.0 0.0 0.0 0.0 0.3 1.7 1.9 0.0 0.0 0.0 0.0 0.0 0.0 0.3 1.9 6.7 6.5 7.5 7.3 5.7 4.9 6.5 7.3 6.7 6.9
0.0 0.0 1.1 1.5 5.9 5.7 6.1 0.0 2.3 0.1 3.5 3.7 3.7 2.9 7.1 8.5 8.3 7.1 1.9 7.7 7.7 3.9 0.9 1.5 0.0 0.0 0.0 0.0 0.0 0.0 0.0 0.0 0.0 0.0 0.0 0.0 1.3 0.9 0.5 0.0 0.9 3.0 3.6 6.1 6.3 7.1 6.9 6.1 5.3 6.1 7.5 7.9 7.5 7.9
0.0 0.0 3.9 5.7 10.1 10.5 9.7 0.0 7.5 4.5 11.5 9.5 6.7 9.7 8.9 7.9 4.3 0.0 7.9 3.5 2.5 0.0 0.0 0.0 0.0 0.0 0.0 0.0 0.0 0.0 0.0 0.0 0.0 0.0 0.0 0.0 0.0 0.0 1.5 2.1 3.1 6.1 6.9 6.1 5.6 6.5 6.9 4.9 6.9 7.5 7.5 7.9 8.1 8.5
0.0 6.9 9.5 11.3 9.7 11.3 8.1 10.3 5.7 6.9 6.9 9.1 10.1 12.0 8.7 6.7 1.9 7.5 11.7 6.9 1.7 0.0 0.0 0.0 0.0 0.0 0.0 0.0 0.0 0.0 0.0 0.0 0.0 0.0 0.0 0.9 3.5 3.5 2.9 4.3 4.7 5.5 5.7 5.4 5.3 4.9 6.7 7.3 7.3 8.1 8.1 8.2 8.9 9.1
11.3 11.5 10.3 12.5 8.1 11.3 12.7 12.3 11.7 10.7 12.8 10.3 12.1 12.0 8.7 4.9 11.9 11.7 11.9 6.1 3.1 1.4 0.0 0.0 0.0 0.0 0.7 0.0 0.0 0.0 0.0 0.0 0.7 3.7 2.7 2.5 6.3 7.3 6.5 5.1 5.2 5.7 5.3 6.9 7.3 7.3 7.5 7.9 8.1 8.3 8.3 8.9 9.1 9.3
13.8 10.7 12.4 9.9 10.3 12.0 10.9 13.2 12.3 12.4 11.5 12.3 11.1 6.3 6.7 10.3 13.2 14.0 7.5 3.7 3.3 0.3 4.1 5.9 4.5 1.7 0.1 0.0 0.0 0.0 0.0 0.0 1.5 6.5 4.9 4.9 7.7 7.9 7.9 7.9 7.7 6.3 3.7 5.9 7.1 8.1 7.9 7.9 8.1 8.5 8.9 8.5 8.3 8.7
13.6 12.4 7.9 0.1 2.1 4.7 8.7 6.7 6.1 9.1 12.3 12.9 9.9 10.3 11.3 15.3 14.7 7.7 0.0 0.0 0.0 0.0 0.0 0.0 0.0 0.0 0.0 0.0 0.0 0.0 0.0 2.3 5.5 6.1 5.3 6.3 6.1 5.5 5.3 7.3 8.1 4.7 3.3 5.9 6.7 7.1 7.5 7.3 7.9 8.1 8.1 7.7 8.3 8.5
9.3 6.5 12.6 8.9 7.7 4.7 11.5 10.5 11.1 12.3 10.3 4.9 6.9 12.9 13.7 13.0 11.3 0.9 0.0 0.0 0.0 0.0 0.0 0.0 0.0 0.0 0.0 0.1 1.3 3.7 5.5 6.3 6.3 6.1 6.7 6.7 6.1 5.7 5.7 5.9 6.1 8.3 4.9 6.3 6.9 7.7 7.3 7.1 7.1 7.1 8.1 7.9 7.9 7.9
9.9 4.5 5.5 12.2 9.7 9.5 9.9 10.7 10.3 5.3 1.7 4.7 10.5 11.3 8.7 1.7 0.5 0.5 0.0 0.0 0.7 3.5 5.5 5.5 4.5 4.8 4.7 4.3 5.9 5.3 5.7 6.9 9.5 12.1 12.0 11.9 8.9 6.5 6.1 6.7 7.1 7.3 6.9 7.3 8.1 7.5 7.1 6.9 7.5 8.3 7.5 7.7 9.3 9.9
9.3 4.5 9.3 10.3 12.8 12.8 8.1 4.7 6.1 3.5 2.7 3.8 4.3 5.9 5.5 3.9 1.3 0.0 0.0 2.1 6.1 7.5 7.3 7.7 7.7 8.5 9.7 9.5 9.3 8.1 6.3 6.7 7.7 9.9 12.2 12.3 10.1 7.7 7.9 7.7 7.7 7.7 7.7 7.9 8.7 10.5 10.5 9.3 10.3 9.9 10.9 11.7 11.9 12.2
3.3 6.1 9.1 9.5 11.7 7.3 4.6 4.6 5.5 5.9 6.7 6.3 5.5 7.9 7.9 5.3 3.0 1.4 4.3 5.7 7.1 8.3 9.5 10.3 9.1 8.1 9.3 9.9 10.7 11.3 10.1 8.5 8.3 8.9 8.7 8.5 8.5 8.1 7.7 7.9 7.9 7.9 8.1 8.7 9.9 10.7 11.1 11.5 10.9 12.0 12.7 13.1 13.1 13.6
8.7 10.3 11.5 13.1 10.9 4.5 7.9 8.9 8.1 8.5 7.5 8.5 8.5 7.5 7.7 8.9 10.7 9.7 12.6 12.4 12.2 12.5 11.3 12.0 12.4 11.9 10.5 9.7 8.5 8.7 10.5 11.3 12.5 12.5 12.6 10.7 8.3 8.1 7.9 7.9 7.9 8.1 8.9 9.5 10.1 10.9 11.7 12.0 12.2 12.6 12.9 13.4 13.6 14.1
9.5 9.1 9.1 10.7 11.9 11.1 7.7 10.7 11.1 10.5 9.1 10.1 9.1 7.5 7.5 9.5 12.4 14.0 12.5 12.7 13.8 14.2 14.5 13.9 12.9 12.0 10.9 11.7 10.9 10.5 11.7 12.7 13.6 14.4 14.7 14.9 14.6 14.3 12.7 10.3 8.7 9.1 9.9 10.1 10.9 11.7 12.3 12.7 12.9 12.9 13.4 14.1 15.3 15.7